When you browse on this site, cookies collect data to enhance your experience and personalize the content and advertising you see.
Visit our Privacy Policy to learn more. By continuing to use the site, you agree to this use of cookies and data.
  • în România
  • Lista ţărilor
  • Pe 7 zile
  • Temperatura apei
  • Hartă satelitară
  • Meteo pe hartă
  • Widget-uri
  • user-avatar
    Intrare

    Meteo pe oră la Bucureşti

    Astăzi, 27 Iunie, Joi

    Timp Temperatura Precipitaţii Vânt Presiune Umiditate
    00:00 +23°C° 0 mm 1 m/s 759 mmHg 59%
    01:00 +23°C° 0 mm 1 m/s 759 mmHg 60%
    02:00 +22°C° 0 mm 1 m/s 759 mmHg 62%
    03:00 +22°C° 0 mm 1 m/s 758 mmHg 63%
    04:00 +22°C° 0 mm 1 m/s 758 mmHg 65%
    05:00 +22°C° 0 mm 1 m/s 757 mmHg 67%
    06:00 +23°C° 0 mm 2 m/s 757 mmHg 66%
    07:00 +25°C° 0 mm 2 m/s 757 mmHg 64%
    08:00 +27°C° 0 mm 3 m/s 757 mmHg 63%
    09:00 +28°C° 0 mm 3 m/s 756 mmHg 57%
    10:00 +30°C° 0 mm 3 m/s 756 mmHg 50%
    11:00 +33°C° 0 mm 3 m/s 755 mmHg 44%
    12:00 +34°C° 0 mm 4 m/s 755 mmHg 41%
    13:00 +35°C° 0 mm 4 m/s 754 mmHg 39%
    14:00 +36°C° 0 mm 4 m/s 754 mmHg 37%
    15:00 +36°C° 0 mm 4 m/s 753 mmHg 38%
    16:00 +35°C° 0 mm 4 m/s 752 mmHg 40%
    17:00 +35°C° 0 mm 4 m/s 752 mmHg 41%
    18:00 +33°C° 0 mm 4 m/s 751 mmHg 48%
    19:00 +30°C° 0 mm 4 m/s 751 mmHg 54%
    20:00 +28°C° 0 mm 4 m/s 751 mmHg 60%
    21:00 +28°C° 0 mm 3 m/s 751 mmHg 61%
    22:00 +27°C° 0 mm 3 m/s 751 mmHg 61%
    23:00 +26°C° 0 mm 2 m/s 751 mmHg 62%

    Mâine, 28 Iunie, Vineri

    Timp Temperatura Precipitaţii Vânt Presiune Umiditate
    00:00 +26°C° 0 mm 3 m/s 751 mmHg 65%
    01:00 +25°C° 0 mm 3 m/s 751 mmHg 69%
    02:00 +25°C° 0 mm 3 m/s 751 mmHg 73%
    03:00 +23°C° 0 mm 4 m/s 751 mmHg 73%
    04:00 +23°C° 0 mm 4 m/s 751 mmHg 73%
    05:00 +23°C° 0 mm 4 m/s 751 mmHg 74%
    06:00 +23°C° 0 mm 5 m/s 751 mmHg 70%
    07:00 +23°C° 0 mm 6 m/s 751 mmHg 66%
    08:00 +23°C° 0 mm 7 m/s 751 mmHg 62%
    09:00 +23°C° 0.1 mm 7 m/s 751 mmHg 64%
    10:00 +22°C° 0.1 mm 6 m/s 751 mmHg 66%
    11:00 +22°C° 0.1 mm 6 m/s 752 mmHg 68%
    12:00 +22°C° 0.2 mm 5 m/s 752 mmHg 68%
    13:00 +23°C° 0.2 mm 4 m/s 752 mmHg 67%
    14:00 +24°C° 0.2 mm 3 m/s 752 mmHg 66%
    15:00 +25°C° 0 mm 4 m/s 752 mmHg 62%
    16:00 +25°C° 0 mm 4 m/s 752 mmHg 58%
    17:00 +26°C° 0 mm 4 m/s 752 mmHg 54%
    18:00 +25°C° 0 mm 5 m/s 752 mmHg 53%
    19:00 +22°C° 0 mm 5 m/s 753 mmHg 53%
    20:00 +21°C° 0 mm 5 m/s 754 mmHg 52%
    21:00 +20°C° 0.1 mm 5 m/s 754 mmHg 55%
    22:00 +19°C° 0.1 mm 5 m/s 754 mmHg 58%
    23:00 +19°C° 0.1 mm 5 m/s 755 mmHg 61%

    Poimâine, 29 Iunie, Sâmbătă

    Timp Temperatura Precipitaţii Vânt Presiune Umiditate
    00:00 +18°C° 0.1 mm 4 m/s 755 mmHg 63%
    01:00 +18°C° 0.1 mm 3 m/s 755 mmHg 64%
    02:00 +18°C° 0.1 mm 3 m/s 755 mmHg 66%
    03:00 +17°C° 0 mm 2 m/s 755 mmHg 67%
    04:00 +17°C° 0 mm 2 m/s 756 mmHg 68%
    05:00 +18°C° 0 mm 1 m/s 756 mmHg 69%
    06:00 +18°C° 0 mm 2 m/s 756 mmHg 67%
    07:00 +19°C° 0 mm 2 m/s 756 mmHg 64%
    08:00 +20°C° 0 mm 3 m/s 756 mmHg 62%
    09:00 +21°C° 0 mm 3 m/s 756 mmHg 57%
    10:00 +23°C° 0 mm 4 m/s 756 mmHg 53%
    11:00 +25°C° 0 mm 4 m/s 756 mmHg 48%
    12:00 +25°C° 0 mm 4 m/s 756 mmHg 47%
    13:00 +25°C° 0 mm 4 m/s 755 mmHg 47%
    14:00 +26°C° 0 mm 4 m/s 755 mmHg 46%
    15:00 +26°C° 0 mm 3 m/s 755 mmHg 47%
    16:00 +26°C° 0 mm 3 m/s 755 mmHg 47%
    17:00 +26°C° 0 mm 3 m/s 755 mmHg 47%
    18:00 +25°C° 0 mm 2 m/s 755 mmHg 50%
    19:00 +24°C° 0 mm 2 m/s 755 mmHg 53%
    20:00 +23°C° 0 mm 1 m/s 756 mmHg 55%
    21:00 +21°C° 0 mm 3 m/s 756 mmHg 54%
    22:00 +21°C° 0 mm 4 m/s 757 mmHg 53%
    23:00 +20°C° 0 mm 5 m/s 757 mmHg 51%

    30 Iunie, Duminică

    Timp Temperatura Precipitaţii Vânt Presiune Umiditate
    00:00 +19°C° 0 mm 5 m/s 757 mmHg 52%
    01:00 +19°C° 0 mm 5 m/s 757 mmHg 54%
    02:00 +19°C° 0 mm 4 m/s 757 mmHg 55%
    03:00 +18°C° 0 mm 3 m/s 757 mmHg 60%
    04:00 +17°C° 0 mm 2 m/s 757 mmHg 65%
    05:00 +16°C° 0 mm 1 m/s 757 mmHg 70%
    06:00 +18°C° 0 mm 1 m/s 758 mmHg 66%
    07:00 +20°C° 0 mm 1 m/s 758 mmHg 62%
    08:00 +21°C° 0 mm 2 m/s 758 mmHg 57%
    09:00 +23°C° 0 mm 2 m/s 758 mmHg 54%
    10:00 +25°C° 0 mm 3 m/s 758 mmHg 50%
    11:00 +26°C° 0 mm 3 m/s 758 mmHg 46%
    12:00 +27°C° 0 mm 3 m/s 758 mmHg 44%
    13:00 +28°C° 0 mm 3 m/s 758 mmHg 42%
    14:00 +29°C° 0 mm 3 m/s 757 mmHg 39%
    15:00 +29°C° 0 mm 3 m/s 757 mmHg 40%
    16:00 +29°C° 0 mm 3 m/s 757 mmHg 41%
    17:00 +29°C° 0 mm 3 m/s 757 mmHg 41%
    18:00 +27°C° 0 mm 3 m/s 757 mmHg 45%
    19:00 +26°C° 0 mm 2 m/s 757 mmHg 49%
    20:00 +25°C° 0 mm 2 m/s 757 mmHg 52%
    21:00 +24°C° 0 mm 2 m/s 758 mmHg 53%
    22:00 +23°C° 0 mm 2 m/s 758 mmHg 54%
    23:00 +23°C° 0 mm 2 m/s 758 mmHg 55%

    1 Iulie, Luni

    Timp Temperatura Precipitaţii Vânt Presiune Umiditate
    00:00 +21°C° 0 mm 2 m/s 758 mmHg 59%
    01:00 +20°C° 0 mm 2 m/s 758 mmHg 63%
    02:00 +21°C° 0 mm 1 m/s 758 mmHg 66%
    03:00 +20°C° 0 mm 1 m/s 758 mmHg 68%
    04:00 +20°C° 0 mm 1 m/s 758 mmHg 70%
    05:00 +20°C° 0 mm 1 m/s 758 mmHg 72%
    06:00 +22°C° 0 mm 1 m/s 758 mmHg 67%
    07:00 +23°C° 0 mm 1 m/s 758 mmHg 62%
    08:00 +25°C° 0 mm 1 m/s 758 mmHg 58%
    09:00 +26°C° 0 mm 1 m/s 758 mmHg 54%
    10:00 +28°C° 0 mm 2 m/s 758 mmHg 50%
    11:00 +29°C° 0 mm 2 m/s 758 mmHg 46%
    12:00 +30°C° 0 mm 2 m/s 757 mmHg 43%
    13:00 +31°C° 0 mm 3 m/s 757 mmHg 41%
    14:00 +33°C° 0 mm 3 m/s 757 mmHg 38%
    15:00 +33°C° 0 mm 3 m/s 756 mmHg 39%
    16:00 +33°C° 0 mm 3 m/s 756 mmHg 39%
    17:00 +33°C° 0 mm 3 m/s 756 mmHg 40%
    18:00 +31°C° 0 mm 3 m/s 756 mmHg 44%
    19:00 +29°C° 0 mm 3 m/s 755 mmHg 49%
    20:00 +27°C° 0 mm 3 m/s 755 mmHg 53%
    21:00 +26°C° 0 mm 3 m/s 755 mmHg 55%
    22:00 +26°C° 0 mm 3 m/s 755 mmHg 56%
    23:00 +25°C° 0 mm 3 m/s 755 mmHg 58%

    2 Iulie, Marţi

    Timp Temperatura Precipitaţii Vânt Presiune Umiditate
    00:00 +24°C° 0 mm 3 m/s 755 mmHg 60%
    01:00 +24°C° 0 mm 3 m/s 755 mmHg 62%
    02:00 +22°C° 0 mm 3 m/s 754 mmHg 64%
    03:00 +22°C° 0 mm 3 m/s 754 mmHg 65%
    04:00 +21°C° 0 mm 3 m/s 754 mmHg 67%
    05:00 +21°C° 0 mm 3 m/s 754 mmHg 68%
    06:00 +24°C° 0 mm 3 m/s 754 mmHg 65%
    07:00 +25°C° 0 mm 3 m/s 754 mmHg 62%
    08:00 +27°C° 0 mm 3 m/s 754 mmHg 58%
    09:00 +29°C° 0 mm 3 m/s 754 mmHg 52%
    10:00 +31°C° 0 mm 3 m/s 753 mmHg 47%
    11:00 +34°C° 0 mm 3 m/s 753 mmHg 41%
    12:00 +35°C° 0 mm 3 m/s 753 mmHg 38%
    13:00 +36°C° 0 mm 3 m/s 753 mmHg 35%
    14:00 +37°C° 0 mm 3 m/s 752 mmHg 32%
    15:00 +37°C° 0 mm 3 m/s 752 mmHg 33%
    16:00 +37°C° 0 mm 3 m/s 752 mmHg 33%
    17:00 +37°C° 0 mm 3 m/s 752 mmHg 34%
    18:00 +35°C° 0 mm 3 m/s 752 mmHg 37%
    19:00 +32°C° 0 mm 2 m/s 752 mmHg 41%
    20:00 +30°C° 0 mm 2 m/s 752 mmHg 44%
    21:00 +29°C° 0 mm 2 m/s 752 mmHg 47%
    22:00 +28°C° 0 mm 2 m/s 752 mmHg 49%
    23:00 +28°C° 0 mm 2 m/s 752 mmHg 51%
    Arată mai mult